Dades meteomassalio
Diari Summary for Juliol 4, 2017 Units:  English    Metric   Both
« Previous Day
Next Day »
Diari Semanal Mensual Anual Personalitzat
  Maxima: Minima: Mijana:
Temperatura: TemperatureC °F 15.2 °F 25.1 °F
Rosada: DewpointC °F 11.2 °F 13.5 °F
Humitat: Humidity % 32 % 51 %
Velocitat del vent: WindSpeedKMH mph 0.0 mph 9 mph
Racha vent: WindSpeedGustKMH mph - -
Vent:- - ESE
Pressio: PressurehPa in 1013.4 in -
Pluja: 0.0 in    
Historical Graphs
 
 
Tabular Data for Juliol 4, 2017
Time Temperature Dew Point Pressure Wind Wind Speed Wind Gust Humidity Rainfall Rate (Hourly) solar Conditions
TemperatureC °F DewpointC °F PressurehPa in Calm     Humidity % HourlyPrecipMM in SolarRadiationWatts/m^2 W/m2 Conditions
00:01 23.4 °F 14.9 °F 1018.5 in Calm     59 % 0.0 in 0.0 W/m2 CLR
00:06 23.3 °F 14.8 °F 1018.5 in Calm     59 % 0.0 in 0.0 W/m2 CLR
00:11 23.2 °F 15.0 °F 1018.5 in Calm     60 % 0.0 in 0.0 W/m2 CLR
00:16 23.1 °F 14.9 °F 1018.5 in Calm     60 % 0.0 in 0.0 W/m2 CLR
00:21 22.9 °F 14.9 °F 1018.5 in Calm     61 % 0.0 in 0.0 W/m2 CLR
00:26 22.8 °F 14.9 °F 1018.5 in Calm     61 % 0.0 in 0.0 W/m2 CLR
00:31 22.6 °F 14.9 °F 1018.5 in Calm     62 % 0.0 in 0.0 W/m2 CLR
00:36 22.4 °F 14.8 °F 1018.5 in Calm     62 % 0.0 in 0.0 W/m2 CLR
00:41 22.3 °F 14.7 °F 1018.5 in Calm     62 % 0.0 in 0.0 W/m2 CLR
00:46 22.1 °F 14.5 °F 1018.5 in Calm     62 % 0.0 in 0.0 W/m2 CLR
00:52 21.9 °F 14.5 °F 1018.5 in Calm     63 % 0.0 in 0.0 W/m2 CLR
00:57 21.8 °F 14.4 °F 1018.5 in Calm     63 % 0.0 in 0.0 W/m2 CLR
01:02 21.6 °F 13.9 °F 1018.5 in Calm     62 % 0.0 in 0.0 W/m2 CLR
01:07 21.3 °F 14.0 °F 1018.5 in Calm     63 % 0.0 in 0.0 W/m2 CLR
01:12 21.2 °F 13.9 °F 1018.5 in Calm     63 % 0.0 in 0.0 W/m2 CLR
01:17 21.1 °F 13.8 °F 1018.5 in Calm     63 % 0.0 in 0.0 W/m2 CLR
01:22 20.9 °F 13.8 °F 1018.2 in Calm     64 % 0.0 in 0.0 W/m2 CLR
01:27 20.7 °F 13.8 °F 1018.2 in Calm     65 % 0.0 in 0.0 W/m2 CLR
01:32 20.5 °F 13.9 °F 1018.5 in Calm     66 % 0.0 in 0.0 W/m2 CLR
01:33 20.5 °F 13.9 °F 1018.2 in Calm     66 % 0.0 in 0.0 W/m2 CLR
01:38 20.3 °F 13.8 °F 1018.5 in Calm     66 % 0.0 in 0.0 W/m2 CLR
01:43 20.2 °F 13.7 °F 1018.2 in Calm     66 % 0.0 in 0.0 W/m2 CLR
01:48 20.1 °F 13.8 °F 1018.2 in Calm     67 % 0.0 in 0.0 W/m2 CLR
01:53 20.1 °F 13.7 °F 1018.2 in Calm     67 % 0.0 in 0.0 W/m2 CLR
01:58 19.9 °F 13.8 °F 1018.2 in Calm     68 % 0.0 in 0.0 W/m2 CLR
02:03 19.8 °F 14.0 °F 1018.2 in Calm     69 % 0.0 in 0.0 W/m2 CLR
02:05 19.8 °F 13.9 °F 1018.2 in Calm     69 % 0.0 in 0.0 W/m2 CLR
02:10 19.7 °F 13.8 °F 1018.2 in Calm     69 % 0.0 in 0.0 W/m2 CLR
02:15 19.6 °F 14.0 °F 1018.2 in Calm     70 % 0.0 in 0.0 W/m2 CLR
02:20 19.5 °F 13.9 °F 1018.2 in Calm     70 % 0.0 in 0.0 W/m2 CLR
02:25 19.4 °F 13.8 °F 1018.2 in Calm     70 % 0.0 in 0.0 W/m2 CLR
02:30 19.4 °F 13.8 °F 1018.2 in Calm     70 % 0.0 in 0.0 W/m2 CLR
02:35 19.3 °F 13.9 °F 1018.2 in Calm     71 % 0.0 in 0.0 W/m2 CLR
02:40 19.1 °F 13.7 °F 1018.2 in Calm     71 % 0.0 in 0.0 W/m2 CLR
02:45 19.0 °F 13.6 °F 1018.2 in Calm     71 % 0.0 in 0.0 W/m2 CLR
02:50 18.9 °F 13.7 °F 1018.2 in Calm     72 % 0.0 in 0.0 W/m2 CLR
02:55 18.8 °F 13.6 °F 1018.2 in Calm     72 % 0.0 in 0.0 W/m2 CLR
03:00 18.8 °F 13.4 °F 1018.2 in Calm     71 % 0.0 in 0.0 W/m2 CLR
03:01 18.8 °F 13.4 °F 1018.2 in Calm     71 % 0.0 in 0.0 W/m2 CLR
03:06 18.9 °F 13.5 °F 1018.2 in Calm     71 % 0.0 in 0.0 W/m2 CLR
03:11 19.0 °F 13.6 °F 1017.8 in Calm     71 % 0.0 in 0.0 W/m2 CLR
03:16 19.1 °F 13.4 °F 1017.8 in Calm     70 % 0.0 in 0.0 W/m2 CLR
03:21 19.1 °F 13.4 °F 1017.8 in Calm     70 % 0.0 in 0.0 W/m2 CLR
03:26 18.9 °F 13.1 °F 1017.8 in Calm     69 % 0.0 in 0.0 W/m2 CLR
03:31 18.8 °F 12.9 °F 1017.8 in Calm     69 % 0.0 in 0.0 W/m2 CLR
03:36 18.6 °F 13.1 °F 1017.8 in Calm     70 % 0.0 in 0.0 W/m2 CLR
03:41 18.4 °F 12.8 °F 1017.8 in Calm     70 % 0.0 in 0.0 W/m2 CLR
03:46 18.2 °F 12.9 °F 1017.8 in Calm     71 % 0.0 in 0.0 W/m2 CLR
03:51 17.9 °F 12.6 °F 1017.8 in Calm     71 % 0.0 in 0.0 W/m2 CLR
03:56 17.7 °F 12.4 °F 1017.8 in Calm     71 % 0.0 in 0.0 W/m2 CLR
04:01 17.6 °F 12.5 °F 1017.8 in Calm     72 % 0.0 in 0.0 W/m2 CLR
04:06 17.6 °F 12.7 °F 1017.8 in Calm     73 % 0.0 in 0.0 W/m2 CLR
04:11 17.4 °F 12.6 °F 1017.8 in Calm     73 % 0.0 in 0.0 W/m2 CLR
04:16 17.4 °F 12.5 °F 1017.8 in Calm     73 % 0.0 in 0.0 W/m2 CLR
04:21 17.3 °F 12.4 °F 1017.8 in Calm     73 % 0.0 in 0.0 W/m2 CLR
04:26 17.3 °F 12.4 °F 1017.8 in Calm     73 % 0.0 in 0.0 W/m2 CLR
04:31 17.2 °F 12.3 °F 1017.8 in Calm     73 % 0.0 in 0.0 W/m2 CLR
04:36 17.1 °F 12.4 °F 1017.8 in Calm     74 % 0.0 in 0.0 W/m2 CLR
04:41 16.9 °F 12.3 °F 1017.8 in Calm     74 % 0.0 in 0.0 W/m2 CLR
04:46 16.8 °F 12.2 °F 1017.8 in Calm     74 % 0.0 in 0.0 W/m2 CLR
04:51 16.7 °F 12.3 °F 1017.8 in Calm     75 % 0.0 in 0.0 W/m2 CLR
04:52 16.7 °F 12.2 °F 1017.8 in Calm     75 % 0.0 in 0.0 W/m2 CLR
04:57 16.6 °F 12.2 °F 1017.8 in Calm     75 % 0.0 in 0.0 W/m2 CLR
05:02 16.6 °F 12.2 °F 1017.8 in Calm     75 % 0.0 in 0.0 W/m2 CLR
05:07 16.6 °F 12.1 °F 1017.8 in Calm     75 % 0.0 in 0.0 W/m2 CLR
05:12 16.5 °F 11.8 °F 1017.8 in Calm     74 % 0.0 in 0.0 W/m2 CLR
05:17 16.4 °F 12.0 °F 1017.8 in Calm     75 % 0.0 in 0.0 W/m2 CLR
05:22 16.4 °F 11.9 °F 1017.8 in Calm     75 % 0.0 in 0.0 W/m2 CLR
05:27 16.3 °F 11.8 °F 1017.8 in Calm     75 % 0.0 in 0.0 W/m2 CLR
05:32 16.2 °F 11.8 °F 1018.2 in Calm     75 % 0.0 in 0.0 W/m2 CLR
05:37 16.2 °F 11.7 °F 1018.2 in Calm     75 % 0.0 in 0.0 W/m2 CLR
05:42 16.1 °F 11.8 °F 1018.2 in Calm     76 % 0.0 in 0.0 W/m2 CLR
05:47 16.0 °F 11.8 °F 1018.2 in Calm     76 % 0.0 in 0.0 W/m2 CLR
05:52 15.8 °F 11.6 °F 1018.2 in Calm     76 % 0.0 in 0.0 W/m2 CLR
05:57 15.8 °F 11.6 °F 1018.2 in Calm     76 % 0.0 in 0.0 W/m2 CLR
06:03 15.8 °F 11.6 °F 1018.2 in Calm     76 % 0.0 in 0.0 W/m2 CLR
06:08 15.7 °F 11.5 °F 1018.2 in Calm     76 % 0.0 in 0.0 W/m2 CLR
06:13 15.7 °F 11.5 °F 1018.2 in Calm     76 % 0.0 in 0.0 W/m2 CLR
06:18 15.7 °F 11.4 °F 1018.2 in Calm     76 % 0.0 in 0.0 W/m2 CLR
06:23 15.6 °F 11.4 °F 1018.2 in Calm     76 % 0.0 in 0.0 W/m2 OVC
06:28 15.5 °F 11.5 °F 1018.2 in Calm     77 % 0.0 in 0.0 W/m2 OVC
06:33 15.4 °F 11.4 °F 1018.2 in Calm     77 % 0.0 in 5.0 W/m2 OVC
06:38 15.4 °F 11.4 °F 1018.2 in Calm     77 % 0.0 in 7.0 W/m2 OVC
06:43 15.3 °F 11.3 °F 1018.2 in Calm     77 % 0.0 in 9.0 W/m2 BKN
06:48 15.4 °F 11.4 °F 1018.2 in Calm     77 % 0.0 in 11.0 W/m2 BKN
06:53 15.3 °F 11.3 °F 1018.2 in Calm     77 % 0.0 in 12.0 W/m2 BKN
06:58 15.3 °F 11.3 °F 1018.5 in Calm     77 % 0.0 in 14.0 W/m2 BKN
07:03 15.2 °F 11.2 °F 1018.5 in Calm     77 % 0.0 in 16.0 W/m2 BKN
07:08 15.2 °F 11.2 °F 1018.5 in Calm     77 % 0.0 in 23.0 W/m2 BKN
07:13 15.3 °F 11.3 °F 1018.5 in Calm     77 % 0.0 in 33.0 W/m2 BKN
07:18 15.5 °F 11.5 °F 1018.5 in Calm     77 % 0.0 in 42.0 W/m2 BKN
07:23 15.7 °F 11.7 °F 1018.5 in Calm     77 % 0.0 in 53.0 W/m2 SCT
07:28 15.9 °F 11.7 °F 1018.5 in Calm     76 % 0.0 in 63.0 W/m2 SCT
07:33 16.1 °F 11.8 °F 1018.5 in Calm     76 % 0.0 in 77.0 W/m2 SCT
07:38 16.3 °F 12.1 °F 1018.5 in Calm     76 % 0.0 in 91.0 W/m2 FEW
07:43 16.7 °F 12.1 °F 1018.5 in Calm     74 % 0.0 in 105.0 W/m2 CLR
07:48 17.2 °F 12.3 °F 1018.5 in Calm     73 % 0.0 in 120.0 W/m2 CLR
07:53 17.7 °F 12.4 °F 1018.5 in Calm     71 % 0.0 in 139.0 W/m2 CLR
07:58 18.0 °F 12.4 °F 1018.5 in Calm     70 % 0.0 in 155.0 W/m2 CLR
08:03 18.4 °F 12.8 °F 1018.5 in Calm     70 % 0.0 in 172.0 W/m2 CLR
08:08 18.9 °F 12.9 °F 1018.5 in Calm     68 % 0.0 in 188.0 W/m2 CLR
08:10 19.2 °F 13.1 °F 1018.5 in Calm     68 % 0.0 in 195.0 W/m2 CLR
08:15 19.8 °F 13.2 °F 1018.5 in Calm     66 % 0.0 in 211.0 W/m2 CLR
08:20 20.3 °F 13.3 °F 1018.5 in Calm     64 % 0.0 in 229.0 W/m2 CLR
08:25 20.8 °F 13.5 °F 1018.5 in Calm     63 % 0.0 in 244.0 W/m2 CLR
08:30 21.2 °F 13.3 °F 1018.5 in Calm     61 % 0.0 in 260.0 W/m2 CLR
08:35 21.4 °F 13.3 °F 1018.5 in Calm     60 % 0.0 in 274.0 W/m2 CLR
08:40 21.6 °F 13.4 °F 1018.5 in Calm     60 % 0.0 in 290.0 W/m2 CLR
08:45 21.6 °F 13.4 °F 1018.5 in Calm     60 % 0.0 in 308.0 W/m2 CLR
08:50 21.7 °F 13.6 °F 1018.5 in Calm     60 % 0.0 in 322.0 W/m2 CLR
08:55 21.9 °F 13.8 °F 1018.5 in Calm     60 % 0.0 in 338.0 W/m2 CLR
09:00 22.1 °F 13.4 °F 1018.5 in Calm     58 % 0.0 in 352.0 W/m2 CLR
09:05 22.3 °F 13.4 °F 1018.2 in Calm     57 % 0.0 in 367.0 W/m2 CLR
09:10 22.7 °F 13.8 °F 1018.2 in Calm     57 % 0.0 in 385.0 W/m2 CLR
09:15 23.1 °F 13.8 °F 1018.2 in Calm     56 % 0.0 in 399.0 W/m2 CLR
09:20 23.6 °F 14.0 °F 1018.2 in Calm     55 % 0.0 in 415.0 W/m2 CLR
09:25 24.1 °F 14.2 °F 1018.2 in Calm     54 % 0.0 in 429.0 W/m2 CLR
09:30 24.3 °F 14.1 °F 1018.2 in Calm     53 % 0.0 in 446.0 W/m2 CLR
09:35 24.4 °F 14.2 °F 1018.2 in Calm     53 % 0.0 in 462.0 W/m2 CLR
09:40 24.9 °F 14.7 °F 1018.2 in ENE 5.6 mph 5.6 mph 53 % 0.0 in 475.0 W/m2 CLR
09:45 25.2 °F 14.4 °F 1018.2 in Calm     51 % 0.0 in 490.0 W/m2 CLR
09:50 25.2 °F 14.4 °F 1018.2 in ENE 9.3 mph 9.3 mph 51 % 0.0 in 504.0 W/m2 CLR
09:55 25.4 °F 14.5 °F 1018.2 in ENE 4.8 mph 4.8 mph 51 % 0.0 in 522.0 W/m2 CLR
10:00 25.5 °F 14.6 °F 1018.2 in ENE 11.1 mph 11.1 mph 51 % 0.0 in 534.0 W/m2 CLR
10:05 25.6 °F 14.7 °F 1018.2 in ENE 9.3 mph 9.3 mph 51 % 0.0 in 550.0 W/m2 CLR
10:10 25.7 °F 14.5 °F 1018.2 in ENE 9.7 mph 9.7 mph 50 % 0.0 in 566.0 W/m2 CLR
10:15 25.8 °F 14.6 °F 1018.2 in East 7.4 mph 7.4 mph 50 % 0.0 in 580.0 W/m2 CLR
10:20 25.9 °F 14.4 °F 1017.8 in East 9.3 mph 9.3 mph 49 % 0.0 in 594.0 W/m2 CLR
10:25 26.1 °F 14.8 °F 1017.8 in ENE 7.4 mph 7.4 mph 50 % 0.0 in 610.0 W/m2 CLR
10:30 26.4 °F 14.8 °F 1017.8 in NNE 8.0 mph 8.0 mph 49 % 0.0 in 624.0 W/m2 CLR
10:35 26.7 °F 14.4 °F 1017.8 in NNE 11.1 mph 11.1 mph 47 % 0.0 in 636.0 W/m2 CLR
10:40 26.8 °F 14.2 °F 1017.8 in ENE 8.0 mph 8.0 mph 46 % 0.0 in 649.0 W/m2 CLR
10:45 27.1 °F 14.4 °F 1017.8 in Calm     46 % 0.0 in 661.0 W/m2 CLR
10:50 27.4 °F 14.4 °F 1017.8 in Calm     45 % 0.0 in 677.0 W/m2 CLR
10:55 27.8 °F 14.4 °F 1017.8 in ENE 14.8 mph 14.8 mph 44 % 0.0 in 687.0 W/m2 CLR
10:56 27.8 °F 14.4 °F 1017.8 in NE 11.1 mph 11.1 mph 44 % 0.0 in 689.0 W/m2 CLR
11:01 28.0 °F 14.6 °F 1017.5 in ENE 7.4 mph 7.4 mph 44 % 0.0 in 701.0 W/m2 CLR
11:06 28.1 °F 14.7 °F 1017.5 in NE 7.4 mph 7.4 mph 44 % 0.0 in 715.0 W/m2 CLR
11:11 28.1 °F 15.1 °F 1017.5 in NE 6.4 mph 6.4 mph 45 % 0.0 in 726.0 W/m2 CLR
11:16 28.2 °F 14.8 °F 1017.5 in NE 11.1 mph 11.1 mph 44 % 0.0 in 737.0 W/m2 CLR
11:22 28.3 °F 14.8 °F 1017.5 in NE 11.3 mph 11.3 mph 44 % 0.0 in 749.0 W/m2 CLR
11:27 28.3 °F 14.9 °F 1017.5 in NE 7.4 mph 7.4 mph 44 % 0.0 in 761.0 W/m2 CLR
11:32 28.7 °F 14.6 °F 1017.5 in NE 11.1 mph 11.1 mph 42 % 0.0 in 768.0 W/m2 CLR
11:37 28.8 °F 14.6 °F 1017.5 in NE 3.7 mph 3.7 mph 42 % 0.0 in 780.0 W/m2 CLR
11:42 29.1 °F 14.5 °F 1017.2 in ENE 9.3 mph 9.3 mph 41 % 0.0 in 789.0 W/m2 CLR
11:47 29.5 °F 14.9 °F 1017.2 in ENE 11.1 mph 11.1 mph 41 % 0.0 in 800.0 W/m2 CLR
11:52 29.7 °F 15.1 °F 1017.2 in ESE 8.0 mph 8.0 mph 41 % 0.0 in 812.0 W/m2 CLR
11:57 29.9 °F 14.9 °F 1017.2 in Calm     40 % 0.0 in 816.0 W/m2 CLR
12:02 30.1 °F 15.0 °F 1017.2 in ESE 4.8 mph 4.8 mph 40 % 0.0 in 830.0 W/m2 CLR
12:07 30.0 °F 14.9 °F 1017.2 in ENE 13.0 mph 13.0 mph 40 % 0.0 in 837.0 W/m2 CLR
12:12 29.9 °F 14.9 °F 1016.8 in ENE 13.0 mph 13.0 mph 40 % 0.0 in 847.0 W/m2 CLR
12:17 30.0 °F 14.6 °F 1016.8 in NE 14.8 mph 14.8 mph 39 % 0.0 in 853.0 W/m2 CLR
12:22 30.3 °F 14.4 °F 1016.8 in NE 16.7 mph 16.7 mph 38 % 0.0 in 861.0 W/m2 CLR
12:27 30.3 °F 13.9 °F 1016.8 in NNE 18.5 mph 18.5 mph 37 % 0.0 in 868.0 W/m2 CLR
12:32 30.3 °F 14.4 °F 1016.8 in ENE 14.8 mph 14.8 mph 38 % 0.0 in 877.0 W/m2 CLR
12:37 30.6 °F 14.6 °F 1016.8 in ESE 13.0 mph 13.0 mph 38 % 0.0 in 886.0 W/m2 CLR
12:42 30.7 °F 14.7 °F 1016.5 in NE 14.8 mph 14.8 mph 38 % 0.0 in 889.0 W/m2 CLR
12:47 30.8 °F 14.4 °F 1016.5 in North 4.8 mph 4.8 mph 37 % 0.0 in 895.0 W/m2 CLR
12:52 31.1 °F 14.7 °F 1016.5 in NE 14.5 mph 14.5 mph 37 % 0.0 in 902.0 W/m2 CLR
12:57 31.2 °F 14.8 °F 1016.5 in NE 14.8 mph 14.8 mph 37 % 0.0 in 905.0 W/m2 CLR
13:02 31.4 °F 14.9 °F 1016.5 in NNE 16.7 mph 16.7 mph 37 % 0.0 in 911.0 W/m2 CLR
13:07 31.4 °F 14.9 °F 1016.1 in NE 22.5 mph 22.5 mph 37 % 0.0 in 916.0 W/m2 CLR
13:12 31.3 °F 14.8 °F 1016.1 in NNW 18.5 mph 18.5 mph 37 % 0.0 in 919.0 W/m2 CLR
13:17 31.4 °F 14.5 °F 1016.1 in ENE 13.0 mph 13.0 mph 36 % 0.0 in 926.0 W/m2 CLR
13:22 31.6 °F 14.7 °F 1016.1 in NNW 7.4 mph 7.4 mph 36 % 0.0 in 926.0 W/m2 CLR
13:27 31.7 °F 14.8 °F 1016.1 in North 5.6 mph 5.6 mph 36 % 0.0 in 928.0 W/m2 CLR
13:32 31.9 °F 14.1 °F 1016.1 in ESE 3.7 mph 3.7 mph 34 % 0.0 in 930.0 W/m2 CLR
13:37 32.2 °F 14.8 °F 1015.8 in East 9.7 mph 9.7 mph 35 % 0.0 in 933.0 W/m2 CLR
13:42 32.4 °F 14.6 °F 1015.8 in East 4.8 mph 4.8 mph 34 % 0.0 in 935.0 W/m2 CLR
13:47 32.9 °F 14.5 °F 1015.8 in ENE 7.4 mph 7.4 mph 33 % 0.0 in 935.0 W/m2 CLR
13:52 33.0 °F 14.1 °F 1015.8 in Calm     32 % 0.0 in 935.0 W/m2 CLR
13:57 32.8 °F 14.9 °F 1015.8 in Calm     34 % 0.0 in 937.0 W/m2 CLR
14:02 32.7 °F 14.3 °F 1015.8 in NNE 9.3 mph 9.3 mph 33 % 0.0 in 939.0 W/m2 CLR
14:07 32.7 °F 14.8 °F 1015.8 in East 16.7 mph 16.7 mph 34 % 0.0 in 937.0 W/m2 CLR
14:12 32.5 °F 15.1 °F 1015.8 in East 9.7 mph 9.7 mph 35 % 0.0 in 937.0 W/m2 CLR
14:17 32.8 °F 14.8 °F 1015.5 in Calm     34 % 0.0 in 933.0 W/m2 CLR
14:22 32.7 °F 14.8 °F 1015.5 in NE 7.4 mph 7.4 mph 34 % 0.0 in 932.0 W/m2 CLR
14:27 32.8 °F 14.9 °F 1015.5 in SE 11.3 mph 11.3 mph 34 % 0.0 in 928.0 W/m2 CLR
14:32 33.0 °F 15.1 °F 1015.5 in ESE 19.3 mph 19.3 mph 34 % 0.0 in 932.0 W/m2 CLR
14:37 32.7 °F 14.8 °F 1015.1 in SSE 11.1 mph 11.1 mph 34 % 0.0 in 930.0 W/m2 CLR
14:42 32.6 °F 15.1 °F 1015.1 in ENE 24.1 mph 24.1 mph 35 % 0.0 in 923.0 W/m2 CLR
14:47 32.8 °F 15.3 °F 1015.1 in SE 20.4 mph 20.4 mph 35 % 0.0 in 921.0 W/m2 CLR
14:52 32.9 °F 15.0 °F 1015.1 in SE 16.7 mph 16.7 mph 34 % 0.0 in 919.0 W/m2 CLR
14:57 33.1 °F 15.1 °F 1015.1 in ENE 19.3 mph 19.3 mph 34 % 0.0 in 914.0 W/m2 CLR
15:02 32.9 °F 15.0 °F 1015.1 in ESE 20.4 mph 20.4 mph 34 % 0.0 in 914.0 W/m2 CLR
15:07 32.7 °F 15.2 °F 1014.8 in SSE 9.3 mph 9.3 mph 35 % 0.0 in 907.0 W/m2 CLR
15:12 32.7 °F 15.3 °F 1014.8 in East 14.8 mph 14.8 mph 35 % 0.0 in 902.0 W/m2 CLR
15:17 32.7 °F 15.3 °F 1014.8 in East 16.7 mph 16.7 mph 35 % 0.0 in 900.0 W/m2 CLR
15:22 32.8 °F 15.3 °F 1014.8 in ESE 16.1 mph 16.1 mph 35 % 0.0 in 893.0 W/m2 CLR
15:27 32.8 °F 14.8 °F 1014.8 in ESE 24.1 mph 24.1 mph 34 % 0.0 in 888.0 W/m2 CLR
15:32 32.7 °F 14.8 °F 1014.8 in East 18.5 mph 18.5 mph 34 % 0.0 in 877.0 W/m2 CLR
15:37 32.7 °F 15.3 °F 1014.8 in ESE 22.2 mph 22.2 mph 35 % 0.0 in 881.0 W/m2 CLR
15:42 32.8 °F 15.3 °F 1014.8 in East 14.8 mph 14.8 mph 35 % 0.0 in 861.0 W/m2 CLR
15:47 32.8 °F 15.3 °F 1014.4 in ENE 22.2 mph 22.2 mph 35 % 0.0 in 860.0 W/m2 CLR
15:53 32.9 °F 15.4 °F 1014.4 in ENE 18.5 mph 18.5 mph 35 % 0.0 in 849.0 W/m2 CLR
15:58 32.9 °F 14.6 °F 1014.8 in ESE 25.9 mph 25.9 mph 33 % 0.0 in 851.0 W/m2 CLR
16:03 32.7 °F 14.3 °F 1014.4 in SE 24.1 mph 24.1 mph 33 % 0.0 in 833.0 W/m2 CLR
16:08 32.6 °F 14.7 °F 1014.4 in South 20.4 mph 20.4 mph 34 % 0.0 in 824.0 W/m2 CLR
16:13 32.7 °F 14.8 °F 1014.4 in ESE 18.5 mph 18.5 mph 34 % 0.0 in 817.0 W/m2 CLR
16:18 32.7 °F 14.8 °F 1014.4 in ESE 18.5 mph 18.5 mph 34 % 0.0 in 810.0 W/m2 CLR
16:23 32.5 °F 14.6 °F 1014.4 in SE 25.9 mph 25.9 mph 34 % 0.0 in 798.0 W/m2 CLR
16:28 32.5 °F 14.6 °F 1014.4 in SSE 24.1 mph 24.1 mph 34 % 0.0 in 788.0 W/m2 CLR
16:33 32.2 °F 14.8 °F 1014.4 in SSE 20.9 mph 20.9 mph 35 % 0.0 in 779.0 W/m2 CLR
16:38 32.3 °F 14.9 °F 1014.4 in ENE 16.7 mph 16.7 mph 35 % 0.0 in 766.0 W/m2 CLR
16:43 32.4 °F 14.9 °F 1014.4 in ESE 24.1 mph 24.1 mph 35 % 0.0 in 756.0 W/m2 CLR
16:48 32.3 °F 14.4 °F 1014.4 in ESE 18.5 mph 18.5 mph 34 % 0.0 in 745.0 W/m2 CLR
16:53 32.3 °F 14.4 °F 1014.4 in SE 31.5 mph 31.5 mph 34 % 0.0 in 738.0 W/m2 CLR
16:58 32.3 °F 14.4 °F 1014.4 in SE 29.0 mph 29.0 mph 34 % 0.0 in 729.0 W/m2 CLR
17:03 31.9 °F 14.1 °F 1014.4 in ESE 29.6 mph 29.6 mph 34 % 0.0 in 715.0 W/m2 CLR
17:08 31.9 °F 14.5 °F 1014.1 in ESE 27.8 mph 27.8 mph 35 % 0.0 in 705.0 W/m2 CLR
17:14 32.3 °F 14.9 °F 1014.4 in SSE 25.7 mph 25.7 mph 35 % 0.0 in 691.0 W/m2 CLR
17:19 32.1 °F 14.2 °F 1014.1 in ESE 25.9 mph 25.9 mph 34 % 0.0 in 680.0 W/m2 CLR
17:24 32.0 °F 14.6 °F 1014.1 in East 22.2 mph 22.2 mph 35 % 0.0 in 668.0 W/m2 CLR
17:29 32.0 °F 14.6 °F 1014.1 in ESE 32.2 mph 32.2 mph 35 % 0.0 in 656.0 W/m2 CLR
17:30 31.9 °F 14.1 °F 1014.1 in East 31.5 mph 31.5 mph 34 % 0.0 in 652.0 W/m2 CLR
17:35 32.1 °F 14.7 °F 1014.1 in ESE 24.1 mph 24.1 mph 35 % 0.0 in 640.0 W/m2 CLR
17:40 32.0 °F 14.6 °F 1013.8 in ESE 33.8 mph 33.8 mph 35 % 0.0 in 624.0 W/m2 CLR
17:45 31.8 °F 14.5 °F 1013.8 in SE 29.6 mph 29.6 mph 35 % 0.0 in 608.0 W/m2 CLR
17:50 32.1 °F 14.2 °F 1013.8 in SSE 22.2 mph 22.2 mph 34 % 0.0 in 599.0 W/m2 CLR
17:55 32.0 °F 14.2 °F 1013.8 in ESE 22.2 mph 22.2 mph 34 % 0.0 in 584.0 W/m2 CLR
18:00 31.9 °F 14.1 °F 1013.8 in ESE 25.9 mph 25.9 mph 34 % 0.0 in 570.0 W/m2 CLR
18:05 32.1 °F 14.2 °F 1013.8 in ESE 20.4 mph 20.4 mph 34 % 0.0 in 555.0 W/m2 CLR
18:10 32.0 °F 13.7 °F 1013.8 in ESE 25.9 mph 25.9 mph 33 % 0.0 in 545.0 W/m2 CLR
18:15 32.0 °F 13.2 °F 1013.8 in SE 24.1 mph 24.1 mph 32 % 0.0 in 529.0 W/m2 CLR
18:20 31.8 °F 13.1 °F 1013.8 in SE 31.5 mph 31.5 mph 32 % 0.0 in 515.0 W/m2 CLR
18:25 31.7 °F 13.4 °F 1013.8 in SSE 29.6 mph 29.6 mph 33 % 0.0 in 501.0 W/m2 CLR
18:30 31.6 °F 13.3 °F 1013.8 in ESE 24.1 mph 24.1 mph 33 % 0.0 in 483.0 W/m2 CLR
18:35 31.4 °F 13.2 °F 1013.8 in East 22.2 mph 22.2 mph 33 % 0.0 in 469.0 W/m2 CLR
18:40 31.3 °F 13.6 °F 1013.8 in ESE 20.4 mph 20.4 mph 34 % 0.0 in 455.0 W/m2 CLR
18:45 31.1 °F 13.4 °F 1013.8 in ESE 25.9 mph 25.9 mph 34 % 0.0 in 439.0 W/m2 CLR
18:50 31.1 °F 13.8 °F 1013.8 in ESE 18.5 mph 18.5 mph 35 % 0.0 in 420.0 W/m2 CLR
18:55 31.1 °F 13.8 °F 1013.4 in SE 20.4 mph 20.4 mph 35 % 0.0 in 408.0 W/m2 CLR
19:00 31.1 °F 13.8 °F 1013.4 in ESE 18.5 mph 18.5 mph 35 % 0.0 in 392.0 W/m2 CLR
19:05 31.0 °F 13.7 °F 1013.8 in SE 20.4 mph 20.4 mph 35 % 0.0 in 376.0 W/m2 CLR
19:10 30.9 °F 13.7 °F 1013.4 in SE 24.1 mph 24.1 mph 35 % 0.0 in 360.0 W/m2 CLR
19:15 30.6 °F 13.8 °F 1013.8 in ESE 29.6 mph 29.6 mph 36 % 0.0 in 345.0 W/m2 CLR
19:20 30.6 °F 13.8 °F 1013.8 in SE 27.8 mph 27.8 mph 36 % 0.0 in 330.0 W/m2 CLR
19:25 30.5 °F 13.3 °F 1013.8 in SE 24.1 mph 24.1 mph 35 % 0.0 in 316.0 W/m2 CLR
19:30 30.4 °F 13.2 °F 1013.8 in SE 27.8 mph 27.8 mph 35 % 0.0 in 301.0 W/m2 CLR
19:35 30.5 °F 13.3 °F 1013.8 in SE 22.2 mph 22.2 mph 35 % 0.0 in 283.0 W/m2 CLR
19:40 30.4 °F 13.2 °F 1013.8 in SSE 22.2 mph 22.2 mph 35 % 0.0 in 265.0 W/m2 CLR
19:45 30.2 °F 13.5 °F 1013.8 in ESE 24.1 mph 24.1 mph 36 % 0.0 in 250.0 W/m2 CLR
19:50 30.1 °F 12.9 °F 1013.8 in SSE 27.8 mph 27.8 mph 35 % 0.0 in 236.0 W/m2 CLR
19:55 30.1 °F 12.9 °F 1013.8 in SE 19.3 mph 19.3 mph 35 % 0.0 in 216.0 W/m2 CLR
20:00 29.9 °F 13.2 °F 1013.8 in ESE 25.7 mph 25.7 mph 36 % 0.0 in 199.0 W/m2 CLR
20:05 29.9 °F 12.8 °F 1013.8 in South 17.7 mph 17.7 mph 35 % 0.0 in 183.0 W/m2 CLR
20:06 29.9 °F 12.8 °F 1013.8 in SSE 18.5 mph 18.5 mph 35 % 0.0 in 179.0 W/m2 CLR
20:11 29.7 °F 13.4 °F 1013.8 in SE 18.5 mph 18.5 mph 37 % 0.0 in 163.0 W/m2 CLR
20:16 29.6 °F 13.4 °F 1013.8 in SE 22.2 mph 22.2 mph 37 % 0.0 in 148.0 W/m2 CLR
20:21 29.4 °F 13.2 °F 1013.4 in SE 24.1 mph 24.1 mph 37 % 0.0 in 135.0 W/m2 CLR
20:26 29.2 °F 13.0 °F 1013.8 in SE 22.2 mph 22.2 mph 37 % 0.0 in 116.0 W/m2 CLR
20:31 29.1 °F 12.9 °F 1013.8 in SE 22.2 mph 22.2 mph 37 % 0.0 in 100.0 W/m2 CLR
20:36 28.9 °F 12.8 °F 1013.8 in South 22.2 mph 22.2 mph 37 % 0.0 in 86.0 W/m2 CLR
20:41 28.9 °F 13.2 °F 1013.8 in SE 20.4 mph 20.4 mph 38 % 0.0 in 72.0 W/m2 FEW
20:46 28.7 °F 12.9 °F 1013.8 in SSE 20.4 mph 20.4 mph 38 % 0.0 in 60.0 W/m2 SCT
20:51 28.6 °F 13.2 °F 1013.8 in SE 20.4 mph 20.4 mph 39 % 0.0 in 18.0 W/m2 BKN
20:56 28.4 °F 13.1 °F 1013.8 in SE 18.5 mph 18.5 mph 39 % 0.0 in 33.0 W/m2 BKN
21:01 28.2 °F 12.9 °F 1014.1 in SSE 25.9 mph 25.9 mph 39 % 0.0 in 25.0 W/m2 BKN
21:06 28.1 °F 12.8 °F 1013.8 in SSE 18.5 mph 18.5 mph 39 % 0.0 in 18.0 W/m2 BKN
21:11 27.9 °F 13.1 °F 1014.1 in South 16.7 mph 16.7 mph 40 % 0.0 in 12.0 W/m2 BKN
21:16 27.7 °F 12.9 °F 1014.1 in SSE 17.7 mph 17.7 mph 40 % 0.0 in 11.0 W/m2 BKN
21:21 27.5 °F 13.1 °F 1014.1 in SSE 11.1 mph 11.1 mph 41 % 0.0 in 9.0 W/m2 BKN
21:26 27.3 °F 12.9 °F 1014.1 in SE 14.8 mph 14.8 mph 41 % 0.0 in 7.0 W/m2 BKN
21:31 27.1 °F 13.1 °F 1014.1 in SE 16.1 mph 16.1 mph 42 % 0.0 in 5.0 W/m2 OVC
21:36 26.8 °F 13.2 °F 1014.4 in SSE 18.5 mph 18.5 mph 43 % 0.0 in 0.0 W/m2 OVC
21:41 26.6 °F 12.9 °F 1014.1 in SE 14.8 mph 14.8 mph 43 % 0.0 in 0.0 W/m2 OVC
21:46 26.4 °F 12.8 °F 1014.1 in SSE 9.7 mph 9.7 mph 43 % 0.0 in 0.0 W/m2 CLR
21:51 26.2 °F 12.7 °F 1014.4 in SE 7.4 mph 7.4 mph 43 % 0.0 in 0.0 W/m2 CLR
22:01 25.9 °F 12.7 °F 1014.4 in SE 9.3 mph 9.3 mph 44 % 0.0 in 0.0 W/m2 CLR
22:06 25.7 °F 12.6 °F 1014.4 in SSE 13.0 mph 13.0 mph 44 % 0.0 in 0.0 W/m2 CLR
22:11 25.6 °F 12.4 °F 1014.4 in SSE 13.0 mph 13.0 mph 44 % 0.0 in 0.0 W/m2 CLR
22:16 25.5 °F 12.3 °F 1014.4 in SSE 14.8 mph 14.8 mph 44 % 0.0 in 0.0 W/m2 CLR
22:21 25.4 °F 12.2 °F 1014.4 in SE 14.8 mph 14.8 mph 44 % 0.0 in 0.0 W/m2 CLR
22:26 25.3 °F 12.2 °F 1014.8 in SE 13.0 mph 13.0 mph 44 % 0.0 in 0.0 W/m2 CLR
22:31 25.2 °F 12.1 °F 1014.8 in SSE 16.7 mph 16.7 mph 44 % 0.0 in 0.0 W/m2 CLR
22:36 25.1 °F 11.9 °F 1014.8 in SSE 11.1 mph 11.1 mph 44 % 0.0 in 0.0 W/m2 CLR
22:41 24.9 °F 11.8 °F 1014.8 in SE 13.0 mph 13.0 mph 44 % 0.0 in 0.0 W/m2 CLR
22:46 24.8 °F 11.7 °F 1014.8 in SSE 9.3 mph 9.3 mph 44 % 0.0 in 0.0 W/m2 CLR
22:51 24.7 °F 11.7 °F 1014.8 in Calm     44 % 0.0 in 0.0 W/m2 CLR
22:56 24.5 °F 11.4 °F 1015.1 in SSE 8.0 mph 8.0 mph 44 % 0.0 in 0.0 W/m2 CLR
23:01 24.4 °F 11.4 °F 1015.1 in SSE 7.4 mph 7.4 mph 44 % 0.0 in 0.0 W/m2 CLR
23:06 24.4 °F 11.3 °F 1015.1 in Calm     44 % 0.0 in 0.0 W/m2 CLR
23:11 24.3 °F 11.2 °F 1015.1 in Calm     44 % 0.0 in 0.0 W/m2 CLR
23:16 24.1 °F 11.4 °F 1015.1 in Calm     45 % 0.0 in 0.0 W/m2 CLR
23:21 23.9 °F 11.6 °F 1015.1 in Calm     46 % 0.0 in 0.0 W/m2 CLR
23:26 23.6 °F 11.6 °F 1015.1 in Calm     47 % 0.0 in 0.0 W/m2 CLR
23:31 23.4 °F 11.8 °F 1015.1 in Calm     48 % 0.0 in 0.0 W/m2 CLR
23:36 23.2 °F 11.8 °F 1015.1 in Calm     49 % 0.0 in 0.0 W/m2 CLR
23:41 23.0 °F 12.0 °F 1015.1 in Calm     50 % 0.0 in 0.0 W/m2 CLR
23:46 22.9 °F 11.9 °F 1015.1 in Calm     50 % 0.0 in 0.0 W/m2 CLR
23:51 22.7 °F 12.0 °F 1015.1 in Calm     51 % 0.0 in 0.0 W/m2 CLR
23:56 22.6 °F 12.2 °F 1015.1 in Calm     52 % 0.0 in 0.0 W/m2 CLR
Lo Temps de Massalio
Compliments of Weather Underground - 1.25 mb